Regional Weather Roundup
Issued by NWS State College, PA

Home | Current Version | Previous Version | Text Only | Print | Product List | Glossary On
Versions: 1 2 3 4 5 6 7 8 9 10 11 12 13 14 15 16 17 18 19 20 21 22 23 24 25 26 27 28 29 30 31 32 33 34 35 36 37 38 39 40 41 42 43 44 45 46 47 48 49 50
070
ASUS41 KCTP 182310
RWRCTP

REGIONAL WEATHER ROUNDUP
NATIONAL WEATHER SERVICE STATE COLLEGE PA
600 PM EST SAT NOV 18 2017

Note: "fair" indicates few or no clouds below 12,000 feet with no
significant weather and/or obstructions to visibility.

* = STATION THAT DOES NOT REPORT PRECIPITATION /E.G. RAIN...SNOW...ETC/
    THUNDER OR FOG.

PAZ002>004-007>009-013>016-020>023-029>032-190000-
WESTERN PENNSYLVANIA

CITY           SKY/WX    TMP DP  RH WIND       PRES   REMARKS
ERIE           CLOUDY    53  49  86 S17G28    29.18F
MEADVILLE      RAIN      49  48  97 S8        29.27S FOG
FRANKLIN*      LGT RAIN  48  46  93 S16G23    29.27F
NEW CASTLE     CLOUDY    50  48  93 VRB7      29.26F
BEAVER COUNTY  NOT AVBL
BUTLER*        CLOUDY    52  47  83 SE6       29.30F
PITTSBURGH INT CLOUDY    51  48  89 SE5       29.29F
PITTSBURGH     CLOUDY    54  46  74 S7        29.28F
INDIANA*       CLOUDY    50  46  87 S9G17     29.39F
LATROBE        CLOUDY    61  48  63 SW14      29.34F
WASHINGTON CO* CLOUDY    60  50  69 S13       29.31F
$$

PAZ004>006-010>012-017>019-024>028-033>037-041-042-045-046-049>053-190000-
CENTRAL PENNSYLVANIA

CITY           SKY/WX    TMP DP  RH WIND       PRES   REMARKS
BRADFORD       LGT RAIN  46  45  96 S8G20     29.33F
DUBOIS         CLOUDY    44  40  85 SE10      29.35F
CLEARFIELD     LGT RAIN  40  39  97 SE3       29.42F
JOHNSTOWN      CLOUDY    43  38  82 S12       29.40F
ALTOONA        CLOUDY    40  37  89 CALM      29.46F
STATE COLLEGE  LGT RAIN  39  37  93 CALM      29.48F
WILLIAMSPORT   CLOUDY    43  39  86 E9        29.52F
SELINSGROVE    CLOUDY    41  40  96 W3        29.52F
FT INDIANTOWN  LGT RAIN  41  41 100 CALM      29.55F
CAPITAL CITY   CLOUDY    44  41  89 E7        29.54F FOG
HARRISBURG     DRIZZLE   43  42  97 SE3       29.54F FOG
YORK           PTCLDY    42  42 100 SE3       29.53F FOG
$$

PAZ038>040-043-044-047-048-054-055-060>062-067>071-190000-
EASTERN PENNSYLVANIA

CITY           SKY/WX    TMP DP  RH WIND       PRES   REMARKS
SCRANTON       LGT RAIN  43  40  89 S6        29.52F
MOUNT POCONO   LGT RAIN  38  38 100 S12       29.55F
ALLENTOWN      LGT RAIN  45  42  89 CALM      29.59F
QUAKERTOWN*    CLOUDY    45  45 100 CALM      29.61F
READING        CLOUDY    45  45 100 CALM      29.57F
LANCASTER      MOCLDY    44  44 100 E7        29.56F
COATESVILLE    MOCLDY    45  45 100 SE5       29.59F
POTTSTOWN      CLOUDY    43  43 100 CALM      29.61F FOG
BLUE BELL      CLOUDY    45  43  93 S3        29.63S
DOYLESTOWN     LGT RAIN  45  43  93 SE3       29.60F
WILLOW GROVE   NOT AVBL
NORTH PHILA    RAIN      50  43  77 S3        29.64F
PHILADELPHIA   LGT RAIN  51  43  74 S8        29.62F
$$




USA.gov is the U.S. government's official web portal to all federal, state and local government web resources and services.